| time (UTC) | temp F | wind direction | speed knots | gust knots | rain 1hr in | rain 24hr in | rain mn in | humidity % | barometer mb |
| 20260506235047 | 71 | 232 | 6.1 | 11.3 | 0.00 | 0.00 | 0.00 | 45 | 1011.7 |
| 20260506234027 | 71 | 223 | 6.1 | 9.6 | 0.00 | 0.00 | 0.00 | 45 | 1011.8 |
| 20260506233041 | 71 | 234 | 5.2 | 11.3 | 0.00 | 0.00 | 0.00 | 46 | 1011.9 |
| 20260506232041 | 71 | 226 | 5.2 | 11.3 | 0.00 | 0.00 | 0.00 | 46 | 1012.0 |
| 20260506231041 | 71 | 232 | 6.1 | 11.3 | 0.00 | 0.00 | 0.00 | 45 | 1012.1 |
| 20260506230019 | 71 | 245 | 7.0 | 13.0 | 0.00 | 0.00 | 0.00 | 45 | 1012.1 |
| 20260506225019 | 72 | 242 | 7.0 | 14.8 | 0.00 | 0.00 | 0.00 | 46 | 1012.2 |
| 20260506224018 | 72 | 243 | 8.7 | 14.8 | 0.00 | 0.00 | 0.00 | 45 | 1012.5 |
| 20260506223017 | 72 | 245 | 9.6 | 14.8 | 0.00 | 0.00 | 0.00 | 44 | 1012.5 |
| 20260506222050 | 73 | 218 | 5.2 | 8.7 | 0.00 | 0.00 | 0.00 | 43 | 1012.5 |
| 20260506221028 | 72 | 216 | 7.0 | 13.0 | 0.00 | 0.00 | 0.00 | 44 | 1012.5 |
| 20260506220028 | 72 | 222 | 7.8 | 14.8 | 0.00 | 0.00 | 0.00 | 43 | 1012.5 |
| 20260506215028 | 72 | 230 | 6.1 | 12.2 | 0.00 | 0.00 | 0.00 | 42 | 1012.5 |
| 20260506214027 | 72 | 213 | 6.1 | 12.2 | 0.00 | 0.00 | 0.00 | 43 | 1012.8 |
| 20260506213025 | 72 | 219 | 7.0 | 13.0 | 0.00 | 0.00 | 0.00 | 45 | 1012.8 |
| 20260506212024 | 72 | 224 | 7.0 | 13.0 | 0.00 | 0.00 | 0.00 | 44 | 1012.8 |
| 20260506211024 | 72 | 237 | 6.1 | 13.0 | 0.00 | 0.00 | 0.00 | 45 | 1012.8 |
| 20260506210020 | 71 | 217 | 6.1 | 12.2 | 0.00 | 0.00 | 0.00 | 45 | 1013.0 |
| 20260506205019 | 71 | 224 | 6.1 | 13.9 | 0.00 | 0.00 | 0.00 | 45 | 1013.2 |
| 20260506204017 | 71 | 213 | 7.0 | 13.0 | 0.00 | 0.00 | 0.00 | 45 | 1013.2 |
| 20260506203029 | 70 | 210 | 7.0 | 13.0 | 0.00 | 0.00 | 0.00 | 49 | 1013.2 |
| 20260506202030 | 70 | 211 | 7.8 | 13.9 | 0.00 | 0.00 | 0.00 | 48 | 1013.2 |
| 20260506201049 | 70 | 217 | 6.1 | 14.8 | 0.00 | 0.00 | 0.00 | 47 | 1013.2 |
| 20260506200029 | 70 | 214 | 8.7 | 14.8 | 0.00 | 0.00 | 0.00 | 48 | 1013.3 |
| 20260506195028 | 69 | 216 | 6.1 | 13.0 | 0.00 | 0.00 | 0.00 | 51 | 1013.4 |
| 20260506194048 | 69 | 209 | 7.0 | 13.9 | 0.00 | 0.00 | 0.00 | 51 | 1013.6 |
| 20260506193026 | 68 | 219 | 5.2 | 13.0 | 0.00 | 0.00 | 0.00 | 50 | 1013.5 |
| 20260506192026 | 68 | 217 | 7.0 | 12.2 | 0.00 | 0.00 | 0.00 | 51 | 1013.6 |
| 20260506191026 | 68 | 225 | 5.2 | 8.7 | 0.00 | 0.00 | 0.00 | 52 | 1013.5 |
| 20260506190025 | 67 | 226 | 7.0 | 14.8 | 0.00 | 0.00 | 0.00 | 52 | 1013.6 |
| 20260506185020 | 67 | 207 | 9.6 | 17.4 | 0.00 | 0.00 | 0.00 | 52 | 1013.6 |
| 20260506184018 | 67 | 214 | 8.7 | 15.6 | 0.00 | 0.00 | 0.00 | 50 | 1013.6 |
| 20260506183037 | 67 | 215 | 7.0 | 12.2 | 0.00 | 0.00 | 0.00 | 52 | 1013.6 |
| 20260506182049 | 67 | 216 | 7.0 | 13.9 | 0.00 | 0.00 | 0.00 | 52 | 1013.6 |
| 20260506181029 | 66 | 211 | 7.0 | 14.8 | 0.00 | 0.00 | 0.00 | 53 | 1013.6 |
| 20260506180028 | 66 | 215 | 8.7 | 13.9 | 0.00 | 0.00 | 0.00 | 51 | 1013.7 |
| 20260506175049 | 66 | 206 | 7.8 | 14.8 | 0.00 | 0.00 | 0.00 | 51 | 1013.8 |
| 20260506174047 | 66 | 207 | 7.0 | 13.0 | 0.00 | 0.00 | 0.00 | 52 | 1013.9 |
| 20260506173025 | 66 | 222 | 5.2 | 8.7 | 0.00 | 0.00 | 0.00 | 52 | 1013.9 |
| 20260506172040 | 65 | 207 | 7.8 | 13.9 | 0.00 | 0.00 | 0.00 | 52 | 1013.9 |
| 20260506171019 | 65 | 210 | 5.2 | 9.6 | 0.00 | 0.00 | 0.00 | 53 | 1013.9 |
| 20260506170017 | 64 | 199 | 6.1 | 12.2 | 0.00 | 0.00 | 0.00 | 51 | 1013.9 |
| 20260506165017 | 64 | 220 | 5.2 | 12.2 | 0.00 | 0.00 | 0.00 | 51 | 1013.9 |
| 20260506164031 | 63 | 210 | 7.0 | 11.3 | 0.00 | 0.00 | 0.00 | 51 | 1013.9 |
| 20260506163029 | 63 | 209 | 6.1 | 12.2 | 0.00 | 0.00 | 0.00 | 52 | 1013.9 |
| 20260506162028 | 63 | 205 | 7.0 | 13.0 | 0.00 | 0.00 | 0.00 | 52 | 1013.7 |
| 20260506161045 | 63 | 204 | 5.2 | 11.3 | 0.00 | 0.00 | 0.00 | 50 | 1013.8 |
| 20260506160025 | 62 | 198 | 4.3 | 12.2 | 0.00 | 0.00 | 0.00 | 48 | 1013.8 |
| 20260506155025 | 62 | 193 | 4.3 | 8.7 | 0.00 | 0.00 | 0.00 | 49 | 1013.8 |
| 20260506154024 | 61 | 208 | 1.7 | 4.3 | 0.00 | 0.00 | 0.00 | 45 | 1013.9 |
| 20260506153024 | 61 | 185 | 0.9 | 1.7 | 0.00 | 0.00 | 0.00 | 44 | 1013.9 |
| 20260506152019 | 60 | 174 | 1.7 | 2.6 | 0.00 | 0.00 | 0.00 | 43 | 1013.9 |
| 20260506151059 | 59 | 74 | 1.7 | 4.3 | 0.00 | 0.00 | 0.00 | 41 | 1013.9 |
| 20260506150017 | 59 | 83 | 1.7 | 4.3 | 0.00 | 0.00 | 0.00 | 43 | 1013.9 |
| 20260506145018 | 59 | 31 | 3.5 | 6.1 | 0.00 | 0.00 | 0.00 | 40 | 1013.9 |
| 20260506144019 | 59 | 40 | 3.5 | 7.0 | 0.00 | 0.00 | 0.00 | 40 | 1013.9 |
| 20260506143019 | 58 | 31 | 1.7 | 5.2 | 0.00 | 0.00 | 0.00 | 39 | 1013.9 |
| 20260506142017 | 58 | 32 | 3.5 | 6.1 | 0.00 | 0.00 | 0.00 | 39 | 1013.9 |
| 20260506141017 | 57 | 48 | 2.6 | 5.2 | 0.00 | 0.00 | 0.00 | 40 | 1013.9 |
| 20260506140037 | 57 | 22 | 4.3 | 7.0 | 0.00 | 0.00 | 0.00 | 40 | 1013.7 |
| 20260506135037 | 56 | 37 | 3.5 | 7.8 | 0.00 | 0.00 | 0.00 | 44 | 1013.6 |
| 20260506134017 | 55 | 42 | 3.5 | 7.8 | 0.00 | 0.00 | 0.00 | 45 | 1013.6 |
| 20260506133017 | 55 | 29 | 5.2 | 7.8 | 0.00 | 0.00 | 0.00 | 43 | 1013.4 |
| 20260506132039 | 55 | 46 | 3.5 | 7.8 | 0.00 | 0.00 | 0.00 | 43 | 1013.3 |
| 20260506131020 | 55 | 30 | 4.3 | 8.7 | 0.00 | 0.00 | 0.00 | 43 | 1013.2 |
| 20260506130019 | 55 | 22 | 5.2 | 8.7 | 0.00 | 0.00 | 0.00 | 44 | 1013.2 |
| 20260506125018 | 55 | 27 | 4.3 | 7.0 | 0.00 | 0.00 | 0.00 | 43 | 1013.2 |
| 20260506124025 | 55 | 19 | 6.1 | 9.6 | 0.00 | 0.00 | 0.00 | 41 | 1013.2 |
| 20260506123046 | 55 | 21 | 6.1 | 9.6 | 0.00 | 0.00 | 0.00 | 42 | 1013.0 |
| 20260506122025 | 55 | 25 | 6.1 | 8.7 | 0.00 | 0.00 | 0.00 | 41 | 1013.0 |
| 20260506121024 | 55 | 32 | 5.2 | 11.3 | 0.00 | 0.00 | 0.00 | 40 | 1012.9 |
| 20260506120019 | 56 | 38 | 5.2 | 8.7 | 0.00 | 0.00 | 0.00 | 41 | 1012.8 |
| 20260506115016 | 56 | 357 | 7.0 | 9.6 | 0.00 | 0.00 | 0.00 | 41 | 1012.8 |
| 20260506114030 | 56 | 7 | 7.8 | 11.3 | 0.00 | 0.00 | 0.00 | 40 | 1012.8 |
| 20260506113016 | 56 | 19 | 7.0 | 8.7 | 0.00 | 0.00 | 0.00 | 40 | 1012.9 |
| 20260506112016 | 55 | 18 | 6.1 | 8.7 | 0.00 | 0.00 | 0.00 | 40 | 1012.9 |
| 20260506111016 | 55 | 14 | 5.2 | 8.7 | 0.00 | 0.00 | 0.00 | 41 | 1012.9 |
| 20260506110029 | 54 | 9 | 6.1 | 12.2 | 0.00 | 0.00 | 0.00 | 42 | 1013.0 |
| 20260506105028 | 54 | 13 | 5.2 | 9.6 | 0.00 | 0.00 | 0.00 | 42 | 1012.8 |
| 20260506104029 | 54 | 357 | 5.2 | 7.8 | 0.00 | 0.00 | 0.00 | 44 | 1012.8 |
| 20260506103028 | 55 | 7 | 6.1 | 8.7 | 0.00 | 0.00 | 0.00 | 43 | 1012.8 |
| 20260506102027 | 55 | 16 | 4.3 | 8.7 | 0.00 | 0.00 | 0.00 | 44 | 1012.8 |
| 20260506101026 | 54 | 55 | 2.6 | 6.1 | 0.00 | 0.00 | 0.00 | 42 | 1012.8 |
| 20260506100025 | 54 | 33 | 5.2 | 8.7 | 0.00 | 0.00 | 0.00 | 42 | 1012.9 |
| 20260506095026 | 55 | 30 | 4.3 | 7.8 | 0.00 | 0.00 | 0.00 | 44 | 1012.8 |
| 20260506094025 | 55 | 17 | 6.1 | 9.6 | 0.00 | 0.00 | 0.00 | 43 | 1012.8 |
| 20260506093024 | 55 | 31 | 6.1 | 11.3 | 0.00 | 0.00 | 0.00 | 44 | 1012.9 |
| 20260506092039 | 55 | 19 | 6.1 | 9.6 | 0.00 | 0.00 | 0.00 | 41 | 1013.0 |
| 20260506091020 | 56 | 21 | 6.1 | 9.6 | 0.00 | 0.00 | 0.00 | 42 | 1012.8 |
| 20260506090018 | 56 | 12 | 9.6 | 13.0 | 0.00 | 0.00 | 0.00 | 42 | 1012.8 |
| 20260506085020 | 56 | 6 | 7.0 | 9.6 | 0.00 | 0.00 | 0.00 | 41 | 1012.9 |
| 20260506084039 | 56 | 23 | 7.8 | 11.3 | 0.00 | 0.00 | 0.00 | 41 | 1013.0 |
| 20260506083018 | 56 | 8 | 7.8 | 11.3 | 0.00 | 0.00 | 0.00 | 42 | 1012.8 |
| 20260506082038 | 57 | 19 | 7.0 | 9.6 | 0.00 | 0.00 | 0.00 | 41 | 1012.8 |
| 20260506081018 | 57 | 24 | 7.8 | 12.2 | 0.00 | 0.00 | 0.00 | 41 | 1012.8 |
| 20260506073028 | 55 | 20 | 7.0 | 9.6 | 0.00 | 0.00 | 0.00 | 44 | 1012.8 |
| 20260506072028 | 54 | 355 | 5.2 | 7.8 | 0.00 | 0.00 | 0.00 | 47 | 1012.8 |
| 20260506071047 | 53 | 68 | 1.7 | 4.3 | 0.00 | 0.00 | 0.00 | 49 | 1012.8 |
| 20260506062026 | 55 | 32 | 3.5 | 6.1 | 0.00 | 0.00 | 0.00 | 51 | 1012.5 |
| 20260506061025 | 56 | 39 | 2.6 | 5.2 | 0.00 | 0.00 | 0.00 | 50 | 1012.4 |
| 20260506051026 | 59 | 85 | 1.7 | 2.6 | 0.00 | 0.00 | 0.00 | 41 | 1012.1 |
| 20260506045016 | 57 | 20 | 2.6 | 4.3 | 0.00 | 0.00 | 0.00 | 40 | 1012.0 |
| 20260506044030 | 59 | 10 | 3.5 | 5.2 | 0.00 | 0.00 | 0.00 | 42 | 1011.8 |
| 20260506043029 | 60 | 117 | 0.9 | 1.7 | 0.00 | 0.00 | 0.00 | 45 | 1011.8 |
| 20260506042017 | 62 | 170 | 0.9 | 1.7 | 0.00 | 0.00 | 0.00 | 47 | 1011.8 |
| 20260506041037 | 63 | 6 | 1.7 | 4.3 | 0.00 | 0.00 | 0.00 | 34 | 1011.7 |
| 20260506040018 | 63 | 353 | 2.6 | 5.2 | 0.00 | 0.00 | 0.00 | 33 | 1011.6 |
| 20260506035016 | 63 | 353 | 3.5 | 5.2 | 0.00 | 0.00 | 0.00 | 33 | 1011.5 |
| 20260506034028 | 63 | 360 | 4.3 | 7.0 | 0.00 | 0.00 | 0.00 | 32 | 1011.4 |
| 20260506033029 | 63 | 348 | 2.6 | 2.6 | 0.00 | 0.00 | 0.00 | 35 | 1011.4 |
| 20260506032030 | 63 | 353 | 3.5 | 4.3 | 0.00 | 0.00 | 0.00 | 35 | 1011.4 |
| 20260506031028 | 63 | 358 | 3.5 | 5.2 | 0.00 | 0.00 | 0.00 | 34 | 1011.4 |
| 20260506030028 | 63 | 347 | 2.6 | 4.3 | 0.00 | 0.00 | 0.00 | 35 | 1011.3 |
| 20260506025016 | 64 | 2 | 4.3 | 6.1 | 0.00 | 0.00 | 0.00 | 36 | 1011.1 |
| 20260506024018 | 65 | 358 | 3.5 | 5.2 | 0.00 | 0.00 | 0.00 | 34 | 1011.1 |
| 20260506023017 | 65 | 355 | 3.5 | 5.2 | 0.00 | 0.00 | 0.00 | 33 | 1011.2 |
| 20260506022040 | 66 | 334 | 1.7 | 2.6 | 0.00 | 0.00 | 0.00 | 33 | 1011.3 |
| 20260506021025 | 67 | 334 | 1.7 | 1.7 | 0.00 | 0.00 | 0.00 | 34 | 1011.1 |
| 20260506020044 | 67 | 343 | 1.7 | 2.6 | 0.00 | 0.00 | 0.00 | 33 | 1011.1 |
| 20260506015017 | 67 | 358 | 1.7 | 2.6 | 0.00 | 0.00 | 0.00 | 32 | 1011.4 |
| 20260506014016 | 68 | 1 | 1.7 | 2.6 | 0.00 | 0.00 | 0.00 | 33 | 1011.2 |
| 20260506012016 | 69 | 8 | 2.6 | 5.2 | 0.00 | 0.00 | 0.00 | 29 | 1011.3 |
| 20260506011016 | 69 | 18 | 3.5 | 5.2 | 0.00 | 0.00 | 0.00 | 30 | 1011.4 |
| 20260506010016 | 69 | 351 | 2.6 | 4.3 | 0.00 | 0.00 | 0.00 | 29 | 1011.3 |
| 20260506005018 | 69 | 15 | 4.3 | 7.8 | 0.00 | 0.00 | 0.00 | 29 | 1011.4 |
| 20260506004017 | 69 | 7 | 5.2 | 7.8 | 0.00 | 0.00 | 0.00 | 30 | 1011.4 |
| 20260506003030 | 69 | 6 | 4.3 | 7.8 | 0.00 | 0.00 | 0.00 | 29 | 1011.4 |
| 20260506002030 | 70 | 360 | 7.0 | 13.0 | 0.00 | 0.00 | 0.00 | 29 | 1011.4 |
| 20260506001026 | 70 | 349 | 3.5 | 7.0 | 0.00 | 0.00 | 0.00 | 28 | 1011.7 |
| 20260506000026 | 70 | 17 | 7.0 | 13.0 | 0.00 | 0.00 | 0.00 | 28 | 1011.7 |